GEFSCGP_prec_meanprecacc_228.txt.gz
Total_Precipitation_Accumulation
0.02 0.02 0.03 0.02 0.03 0.02 0.02 0.04 0.05 0.06 0.05 0.07 0.12 0.22 0.35 0.47 0.53 0.66 0.82 0.88 0.91 1.09 1.51 1.92 2.10 2.20 2.52 2.77 2.95 2.93 3.09 3.41 3.66 4.03 4.01 4.23 4.67 5.03 5.17 5.28 5.25 5.17 5.09 5.09
0.03 0.03 0.03 0.02 0.02 0.02 0.02 0.04 0.05 0.07 0.08 0.10 0.18 0.30 0.40 0.50 0.57 0.70 0.88 0.94 0.89 1.09 1.40 1.83 2.06 2.39 2.64 2.78 3.04 3.18 3.28 3.68 4.18 4.73 5.26 5.66 6.01 6.01 6.13 6.08 5.97 5.67 5.48 5.35
0.03 0.02 0.01 0.02 0.02 0.02 0.02 0.04 0.06 0.07 0.11 0.15 0.22 0.40 0.53 0.63 0.70 0.78 0.87 0.94 1.01 1.20 1.50 1.71 1.96 2.28 2.55 2.78 3.05 3.23 3.53 4.12 4.94 5.46 5.93 6.51 6.84 6.56 6.30 6.01 5.94 5.84 5.76 5.63
0.02 0.01 0.01 0.02 0.03 0.03 0.04 0.05 0.05 0.07 0.12 0.23 0.26 0.50 0.77 0.87 0.97 0.91 1.00 1.15 1.27 1.38 1.52 1.71 1.94 2.21 2.51 2.85 2.98 3.18 3.74 4.45 5.12 5.66 6.28 6.89 7.19 7.25 7.05 6.49 6.00 5.57 5.27 5.03
0.01 0.01 0.02 0.02 0.03 0.03 0.04 0.04 0.05 0.08 0.13 0.23 0.25 0.49 0.98 1.20 1.28 1.23 1.28 1.33 1.35 1.37 1.49 1.64 1.84 2.06 2.19 2.54 3.01 3.33 3.89 4.56 5.21 5.94 6.68 7.14 7.37 7.39 7.01 6.23 5.47 4.93 4.59 4.29
0.01 0.02 0.02 0.03 0.03 0.04 0.04 0.05 0.08 0.12 0.17 0.28 0.28 0.48 1.08 1.42 1.63 1.59 1.48 1.51 1.48 1.39 1.38 1.41 1.62 1.79 2.07 2.42 2.82 3.30 3.62 4.21 4.89 5.50 6.07 6.26 6.42 6.37 5.97 5.56 5.07 4.64 4.11 3.64
0.04 0.04 0.03 0.03 0.03 0.04 0.04 0.09 0.25 0.38 0.42 0.40 0.29 0.55 1.13 1.44 1.43 1.43 1.42 1.50 1.47 1.30 1.32 1.53 1.79 1.77 2.03 2.30 2.68 3.12 3.52 3.89 4.41 4.95 5.44 5.67 5.82 5.71 5.24 4.79 4.34 3.90 3.39 3.01
0.12 0.09 0.05 0.03 0.04 0.05 0.04 0.10 0.31 0.49 0.54 0.54 0.50 0.87 1.30 1.31 1.21 1.16 1.14 1.19 1.34 1.36 1.40 1.51 1.64 1.72 1.99 2.19 2.43 2.81 3.16 3.54 3.76 4.01 4.37 4.62 4.77 4.63 4.29 3.82 3.33 3.02 2.73 2.44
0.18 0.15 0.06 0.04 0.03 0.04 0.06 0.09 0.17 0.22 0.30 0.54 0.90 1.20 1.54 1.46 1.33 1.23 1.11 1.12 1.23 1.21 1.23 1.34 1.50 1.62 1.82 2.12 2.46 2.70 2.84 3.05 3.24 3.44 3.52 3.51 3.61 3.52 3.26 2.97 2.66 2.37 2.11 1.86
0.15 0.21 0.09 0.04 0.04 0.05 0.07 0.09 0.13 0.22 0.51 0.76 1.03 1.51 1.85 1.93 1.82 1.68 1.38 1.26 1.20 1.23 1.24 1.26 1.37 1.53 1.60 1.71 2.05 2.35 2.42 2.53 2.62 2.71 2.76 2.68 2.72 2.62 2.54 2.39 2.15 1.88 1.73 1.53
0.16 0.22 0.14 0.07 0.08 0.10 0.10 0.12 0.16 0.24 0.35 0.72 1.13 1.72 1.92 2.19 2.25 2.10 1.76 1.59 1.53 1.47 1.38 1.34 1.38 1.41 1.47 1.58 1.75 1.98 2.17 2.19 2.23 2.37 2.35 2.23 2.27 2.26 2.21 2.09 1.94 1.80 1.73 1.60
0.18 0.24 0.23 0.15 0.13 0.10 0.11 0.15 0.23 0.43 0.46 0.52 0.99 1.89 2.17 2.30 2.25 2.00 1.82 1.69 1.59 1.50 1.35 1.30 1.26 1.22 1.28 1.44 1.59 1.74 1.91 1.96 1.98 2.04 2.11 2.17 2.17 2.10 2.00 1.82 1.69 1.56 1.44 1.32
0.14 0.30 0.54 0.56 0.43 0.23 0.16 0.16 0.22 0.30 0.43 0.59 1.06 2.09 2.55 2.47 2.31 2.03 1.87 1.79 1.75 1.66 1.47 1.37 1.25 1.20 1.24 1.35 1.45 1.58 1.77 1.89 1.88 1.81 1.80 1.93 1.93 1.82 1.70 1.58 1.52 1.43 1.29 1.23
0.12 0.29 0.66 1.13 0.88 0.49 0.30 0.21 0.25 0.38 0.61 0.76 1.03 1.53 1.84 1.94 2.02 2.04 2.14 2.16 1.98 1.77 1.56 1.37 1.30 1.24 1.27 1.34 1.35 1.41 1.53 1.69 1.78 1.77 1.81 1.81 1.76 1.68 1.65 1.49 1.31 1.22 1.13 1.17
0.17 0.35 0.38 0.43 0.42 0.43 0.43 0.36 0.32 0.42 0.54 0.83 1.14 1.49 1.80 1.87 1.88 1.93 2.06 2.01 1.78 1.61 1.44 1.30 1.30 1.37 1.34 1.31 1.29 1.32 1.46 1.53 1.75 1.81 1.75 1.73 1.69 1.64 1.63 1.55 1.39 1.24 1.12 1.07
0.20 0.35 0.37 0.43 0.37 0.45 0.44 0.44 0.45 0.53 0.64 0.86 1.20 1.66 1.87 1.87 1.82 1.88 1.98 1.97 1.78 1.48 1.32 1.25 1.26 1.35 1.30 1.26 1.22 1.18 1.29 1.34 1.48 1.62 1.62 1.54 1.51 1.55 1.51 1.49 1.37 1.26 1.16 1.11
0.29 0.45 0.61 0.63 0.41 0.62 0.90 0.69 0.70 0.79 0.82 1.01 1.40 1.61 1.67 1.76 1.78 1.81 1.92 2.01 1.90 1.63 1.51 1.53 1.55 1.54 1.42 1.31 1.24 1.26 1.32 1.36 1.43 1.49 1.43 1.43 1.44 1.40 1.37 1.24 1.16 1.19 1.22 1.13
0.30 0.49 0.63 0.63 0.78 1.26 1.14 0.64 0.71 0.86 0.88 0.92 1.05 1.19 1.35 1.47 1.56 1.71 1.88 2.03 2.01 1.89 1.84 1.85 1.79 1.64 1.49 1.37 1.34 1.34 1.32 1.38 1.46 1.43 1.35 1.30 1.31 1.27 1.23 1.20 1.14 1.14 1.14 1.08
0.19 0.42 0.67 0.86 1.17 1.38 1.11 0.67 0.64 0.95 1.13 0.89 0.89 0.92 0.96 0.99 1.17 1.58 1.74 1.81 1.86 1.88 1.85 1.75 1.67 1.57 1.46 1.35 1.31 1.26 1.26 1.25 1.26 1.22 1.18 1.10 1.13 1.19 1.20 1.17 1.19 1.15 1.07 1.02
0.20 0.34 0.72 0.97 1.31 1.61 1.35 0.64 0.45 0.81 1.50 1.04 0.89 0.93 0.97 1.09 1.36 1.45 1.36 1.37 1.43 1.46 1.50 1.53 1.51 1.42 1.33 1.25 1.16 1.13 1.15 1.14 1.11 1.10 1.09 0.99 1.00 1.07 1.14 1.15 1.15 1.05 0.97 0.92
0.52 0.58 0.79 0.99 1.29 1.47 0.84 0.49 0.64 1.37 1.76 1.17 0.98 1.00 1.12 1.25 1.26 1.04 0.97 1.04 1.13 1.24 1.29 1.31 1.41 1.43 1.26 1.07 1.01 1.06 1.05 1.04 0.92 0.91 0.98 0.99 0.98 0.99 0.99 1.01 1.03 0.99 0.89 0.85
0.68 0.84 0.94 1.10 1.48 1.62 0.72 0.55 0.99 1.21 0.95 0.90 0.92 0.94 0.96 0.91 0.78 0.76 0.79 0.82 0.87 1.03 1.17 1.18 1.29 1.23 1.07 0.95 0.98 1.04 1.01 0.90 0.84 0.91 1.02 1.02 0.99 0.88 0.86 0.98 1.02 0.96 0.89 0.82
0.54 0.71 0.93 1.15 1.39 1.09 0.59 0.58 0.64 0.63 0.69 0.71 0.71 0.67 0.63 0.63 0.61 0.61 0.69 0.76 0.81 0.91 1.02 1.03 1.07 1.06 0.99 0.95 1.00 1.05 0.99 0.85 0.88 0.97 1.02 1.04 0.97 0.93 0.91 0.94 0.94 0.89 0.84 0.76
0.46 0.36 0.49 0.72 0.75 0.55 0.47 0.44 0.41 0.44 0.54 0.56 0.59 0.63 0.55 0.58 0.60 0.60 0.64 0.73 0.82 0.88 0.90 0.91 0.96 0.97 0.94 0.88 0.88 0.90 0.82 0.80 0.90 0.99 0.97 0.97 0.99 0.98 0.91 0.84 0.78 0.76 0.74 0.69
0.44 0.42 0.55 0.66 0.55 0.47 0.45 0.38 0.33 0.36 0.40 0.44 0.51 0.60 0.60 0.59 0.66 0.65 0.66 0.73 0.79 0.85 0.86 0.89 0.96 0.97 0.86 0.80 0.76 0.75 0.77 0.83 0.93 0.93 0.87 0.86 0.89 0.88 0.83 0.71 0.63 0.60 0.53 0.45
0.34 0.45 0.63 0.67 0.52 0.54 0.48 0.35 0.32 0.38 0.42 0.43 0.49 0.60 0.57 0.56 0.64 0.71 0.73 0.71 0.71 0.78 0.80 0.84 0.84 0.84 0.79 0.71 0.68 0.71 0.73 0.74 0.83 0.83 0.78 0.74 0.76 0.75 0.68 0.63 0.57 0.49 0.36 0.31

GEFSCGP_prec_meanprecacc_234.txt.gz
Total_Precipitation_Accumulation
0.02 0.03 0.03 0.03 0.03 0.03 0.03 0.06 0.07 0.07 0.06 0.07 0.13 0.23 0.36 0.50 0.57 0.71 0.86 0.91 0.96 1.16 1.59 2.00 2.17 2.25 2.56 2.80 2.98 2.96 3.12 3.46 3.70 4.06 4.06 4.29 4.73 5.09 5.22 5.33 5.32 5.23 5.13 5.12
0.04 0.04 0.03 0.03 0.03 0.02 0.02 0.05 0.07 0.08 0.09 0.11 0.18 0.31 0.41 0.52 0.60 0.76 0.95 0.99 0.95 1.15 1.47 1.93 2.14 2.44 2.66 2.80 3.06 3.21 3.32 3.73 4.23 4.78 5.29 5.70 6.05 6.05 6.17 6.12 6.01 5.72 5.52 5.39
0.03 0.02 0.01 0.02 0.02 0.03 0.03 0.04 0.06 0.09 0.12 0.16 0.23 0.42 0.54 0.64 0.72 0.82 0.93 0.98 1.06 1.26 1.57 1.78 2.01 2.32 2.57 2.79 3.06 3.24 3.54 4.14 4.96 5.49 5.96 6.53 6.87 6.59 6.32 6.03 5.96 5.88 5.80 5.67
0.02 0.02 0.02 0.02 0.03 0.03 0.05 0.05 0.06 0.08 0.13 0.25 0.27 0.51 0.80 0.91 1.01 0.93 1.03 1.17 1.30 1.43 1.59 1.78 1.98 2.24 2.53 2.87 3.00 3.19 3.75 4.46 5.13 5.68 6.30 6.91 7.20 7.26 7.06 6.50 6.01 5.59 5.30 5.08
0.02 0.02 0.02 0.03 0.04 0.03 0.05 0.05 0.06 0.09 0.14 0.24 0.28 0.52 1.03 1.26 1.31 1.26 1.31 1.35 1.38 1.41 1.54 1.70 1.87 2.08 2.21 2.56 3.03 3.35 3.91 4.59 5.24 5.97 6.70 7.16 7.39 7.40 7.02 6.24 5.48 4.94 4.60 4.32
0.02 0.03 0.03 0.03 0.03 0.04 0.04 0.06 0.09 0.13 0.19 0.30 0.30 0.50 1.10 1.44 1.66 1.63 1.50 1.52 1.50 1.40 1.39 1.43 1.63 1.81 2.10 2.45 2.84 3.32 3.64 4.24 4.92 5.52 6.10 6.30 6.45 6.39 5.99 5.57 5.08 4.65 4.12 3.66
0.04 0.04 0.04 0.03 0.03 0.04 0.04 0.10 0.26 0.40 0.46 0.42 0.31 0.56 1.15 1.46 1.45 1.45 1.44 1.52 1.49 1.32 1.34 1.54 1.81 1.80 2.05 2.33 2.71 3.15 3.54 3.91 4.43 4.97 5.46 5.70 5.85 5.73 5.25 4.80 4.35 3.92 3.41 3.03
0.12 0.10 0.05 0.03 0.04 0.05 0.04 0.11 0.32 0.52 0.57 0.57 0.52 0.90 1.34 1.35 1.24 1.19 1.17 1.21 1.35 1.39 1.43 1.53 1.66 1.74 2.03 2.25 2.49 2.88 3.20 3.56 3.79 4.03 4.40 4.65 4.80 4.66 4.32 3.85 3.37 3.05 2.76 2.47
0.18 0.16 0.07 0.04 0.04 0.05 0.07 0.10 0.18 0.24 0.32 0.57 0.92 1.22 1.57 1.49 1.36 1.25 1.13 1.15 1.26 1.24 1.27 1.40 1.57 1.68 1.87 2.17 2.51 2.76 2.88 3.09 3.27 3.47 3.55 3.54 3.64 3.55 3.30 3.02 2.71 2.42 2.16 1.90
0.16 0.22 0.10 0.05 0.05 0.06 0.08 0.10 0.14 0.24 0.54 0.81 1.06 1.54 1.88 1.97 1.86 1.71 1.40 1.28 1.22 1.25 1.26 1.29 1.44 1.62 1.70 1.78 2.10 2.40 2.46 2.57 2.67 2.76 2.80 2.72 2.76 2.66 2.59 2.43 2.20 1.94 1.80 1.59
0.17 0.23 0.16 0.08 0.09 0.11 0.11 0.13 0.16 0.25 0.38 0.76 1.17 1.75 1.94 2.21 2.29 2.14 1.78 1.60 1.54 1.48 1.39 1.36 1.41 1.48 1.58 1.71 1.86 2.08 2.24 2.25 2.30 2.43 2.39 2.27 2.32 2.31 2.27 2.15 1.99 1.85 1.78 1.65
0.19 0.25 0.25 0.16 0.14 0.11 0.11 0.15 0.24 0.45 0.48 0.53 1.01 1.94 2.20 2.33 2.28 2.03 1.84 1.70 1.61 1.51 1.36 1.32 1.29 1.26 1.34 1.54 1.75 1.92 2.02 2.02 2.05 2.11 2.18 2.24 2.24 2.16 2.06 1.88 1.75 1.61 1.49 1.36
0.15 0.31 0.55 0.57 0.44 0.24 0.17 0.16 0.23 0.31 0.45 0.60 1.09 2.14 2.59 2.50 2.34 2.05 1.90 1.81 1.77 1.68 1.49 1.38 1.27 1.23 1.27 1.38 1.49 1.65 1.85 1.95 1.95 1.92 1.91 2.02 2.03 1.91 1.77 1.63 1.56 1.47 1.35 1.28
0.12 0.29 0.67 1.15 0.89 0.50 0.31 0.22 0.26 0.39 0.63 0.77 1.05 1.57 1.87 1.98 2.06 2.08 2.17 2.19 2.00 1.78 1.58 1.38 1.31 1.26 1.28 1.36 1.38 1.43 1.56 1.74 1.86 1.95 2.03 1.98 1.88 1.79 1.73 1.54 1.35 1.27 1.18 1.23
0.17 0.36 0.39 0.44 0.42 0.43 0.44 0.37 0.33 0.43 0.54 0.84 1.15 1.51 1.83 1.91 1.94 1.97 2.10 2.03 1.80 1.62 1.45 1.31 1.31 1.38 1.36 1.34 1.32 1.35 1.50 1.60 1.82 1.93 1.91 1.84 1.75 1.70 1.68 1.60 1.44 1.28 1.15 1.11
0.21 0.36 0.38 0.45 0.38 0.46 0.45 0.45 0.47 0.54 0.64 0.87 1.20 1.66 1.88 1.89 1.87 1.91 2.01 2.00 1.81 1.50 1.34 1.27 1.27 1.36 1.32 1.28 1.25 1.22 1.33 1.39 1.53 1.67 1.66 1.58 1.55 1.59 1.54 1.51 1.40 1.30 1.19 1.12
0.30 0.46 0.62 0.64 0.43 0.62 0.90 0.70 0.71 0.80 0.83 1.02 1.40 1.62 1.67 1.77 1.80 1.84 1.96 2.04 1.92 1.65 1.54 1.55 1.57 1.56 1.44 1.32 1.26 1.28 1.34 1.38 1.45 1.52 1.45 1.45 1.45 1.41 1.39 1.25 1.18 1.21 1.24 1.15
0.31 0.50 0.64 0.64 0.80 1.28 1.15 0.64 0.72 0.86 0.88 0.93 1.06 1.19 1.36 1.49 1.58 1.73 1.90 2.05 2.03 1.90 1.86 1.87 1.80 1.65 1.50 1.38 1.34 1.35 1.34 1.40 1.48 1.45 1.38 1.31 1.33 1.28 1.24 1.21 1.16 1.16 1.16 1.11
0.21 0.44 0.69 0.87 1.18 1.39 1.12 0.68 0.65 0.97 1.13 0.90 0.90 0.93 0.98 1.02 1.20 1.60 1.76 1.82 1.88 1.89 1.87 1.78 1.69 1.60 1.48 1.36 1.32 1.28 1.28 1.27 1.28 1.24 1.20 1.11 1.14 1.20 1.21 1.18 1.21 1.17 1.09 1.04
0.21 0.36 0.74 0.99 1.33 1.62 1.36 0.65 0.47 0.82 1.52 1.04 0.89 0.95 1.00 1.13 1.39 1.48 1.38 1.38 1.43 1.47 1.51 1.55 1.54 1.46 1.36 1.27 1.18 1.14 1.17 1.16 1.13 1.11 1.10 1.01 1.02 1.08 1.16 1.17 1.17 1.07 0.99 0.95
0.53 0.60 0.80 1.01 1.32 1.49 0.85 0.50 0.65 1.39 1.77 1.18 1.00 1.03 1.15 1.27 1.27 1.05 0.97 1.04 1.13 1.25 1.30 1.31 1.43 1.45 1.29 1.09 1.03 1.08 1.06 1.05 0.94 0.92 0.99 1.00 0.99 1.01 1.01 1.03 1.06 1.01 0.92 0.88
0.69 0.86 0.96 1.12 1.51 1.65 0.74 0.57 1.01 1.22 0.96 0.92 0.94 0.97 1.00 0.93 0.79 0.77 0.79 0.83 0.87 1.04 1.18 1.19 1.30 1.25 1.08 0.97 0.99 1.06 1.03 0.91 0.85 0.92 1.04 1.04 1.01 0.90 0.88 1.00 1.05 0.98 0.91 0.84
0.55 0.73 0.95 1.18 1.42 1.12 0.62 0.60 0.66 0.65 0.70 0.71 0.73 0.68 0.64 0.65 0.62 0.61 0.69 0.76 0.81 0.91 1.02 1.03 1.09 1.06 1.00 0.96 1.02 1.07 1.01 0.87 0.90 0.99 1.05 1.07 1.00 0.96 0.94 0.97 0.97 0.92 0.87 0.79
0.47 0.36 0.50 0.73 0.78 0.58 0.51 0.48 0.44 0.46 0.55 0.57 0.60 0.64 0.55 0.59 0.61 0.61 0.64 0.73 0.82 0.89 0.90 0.91 0.97 0.97 0.94 0.89 0.90 0.91 0.84 0.82 0.93 1.02 1.00 1.00 1.02 1.01 0.94 0.87 0.82 0.79 0.76 0.71
0.44 0.43 0.56 0.67 0.56 0.49 0.47 0.40 0.36 0.40 0.43 0.46 0.52 0.61 0.60 0.59 0.67 0.66 0.67 0.73 0.79 0.85 0.86 0.89 0.97 0.97 0.86 0.81 0.78 0.76 0.78 0.84 0.95 0.95 0.89 0.87 0.90 0.89 0.84 0.72 0.65 0.62 0.55 0.48
0.35 0.46 0.64 0.68 0.54 0.56 0.51 0.36 0.33 0.41 0.47 0.47 0.51 0.61 0.57 0.56 0.65 0.72 0.73 0.71 0.72 0.78 0.80 0.85 0.85 0.85 0.81 0.72 0.69 0.71 0.74 0.74 0.84 0.84 0.79 0.75 0.78 0.76 0.70 0.65 0.58 0.51 0.38 0.35

GEFSCGP_prec_meanprecacc_240.txt.gz
Total_Precipitation_Accumulation
0.02 0.03 0.03 0.03 0.03 0.03 0.03 0.06 0.07 0.07 0.06 0.08 0.13 0.23 0.37 0.51 0.59 0.75 0.90 0.94 0.99 1.18 1.63 2.05 2.22 2.31 2.62 2.88 3.05 3.02 3.21 3.56 3.77 4.11 4.10 4.33 4.77 5.12 5.26 5.37 5.35 5.27 5.17 5.17
0.04 0.04 0.03 0.03 0.03 0.03 0.02 0.05 0.07 0.09 0.10 0.12 0.19 0.31 0.42 0.52 0.61 0.77 0.97 1.01 0.97 1.17 1.50 1.96 2.19 2.49 2.71 2.86 3.13 3.26 3.41 3.85 4.32 4.83 5.34 5.75 6.09 6.09 6.19 6.14 6.03 5.74 5.55 5.43
0.03 0.03 0.02 0.03 0.03 0.03 0.03 0.05 0.07 0.09 0.13 0.17 0.23 0.42 0.54 0.65 0.73 0.83 0.94 0.99 1.07 1.28 1.59 1.80 2.06 2.37 2.61 2.83 3.11 3.30 3.63 4.26 5.07 5.56 6.02 6.60 6.92 6.63 6.34 6.05 5.97 5.89 5.82 5.70
0.03 0.02 0.02 0.03 0.04 0.04 0.05 0.06 0.06 0.09 0.13 0.25 0.27 0.52 0.80 0.92 1.01 0.94 1.03 1.18 1.31 1.44 1.60 1.79 1.99 2.25 2.54 2.89 3.02 3.24 3.83 4.56 5.22 5.77 6.38 6.98 7.28 7.32 7.10 6.52 6.02 5.60 5.32 5.11
0.03 0.02 0.02 0.03 0.04 0.04 0.05 0.05 0.06 0.10 0.14 0.24 0.28 0.53 1.04 1.26 1.32 1.27 1.31 1.36 1.39 1.42 1.55 1.71 1.88 2.09 2.23 2.57 3.05 3.38 3.96 4.65 5.31 6.05 6.79 7.24 7.47 7.46 7.07 6.27 5.49 4.95 4.63 4.35
0.03 0.04 0.04 0.04 0.04 0.04 0.05 0.07 0.10 0.14 0.20 0.31 0.31 0.51 1.12 1.46 1.67 1.64 1.50 1.53 1.51 1.41 1.40 1.44 1.65 1.83 2.13 2.48 2.87 3.35 3.67 4.28 4.96 5.57 6.14 6.35 6.52 6.46 6.04 5.60 5.10 4.69 4.17 3.71
0.05 0.05 0.05 0.04 0.04 0.05 0.05 0.11 0.27 0.41 0.47 0.43 0.32 0.57 1.17 1.49 1.47 1.46 1.44 1.52 1.49 1.32 1.34 1.55 1.82 1.82 2.09 2.38 2.76 3.21 3.60 3.97 4.48 5.01 5.50 5.73 5.88 5.77 5.30 4.85 4.40 3.98 3.49 3.10
0.13 0.11 0.06 0.04 0.05 0.06 0.05 0.12 0.33 0.53 0.58 0.57 0.53 0.90 1.36 1.38 1.26 1.19 1.17 1.22 1.36 1.39 1.43 1.53 1.67 1.76 2.06 2.30 2.56 2.95 3.30 3.66 3.86 4.08 4.45 4.68 4.82 4.69 4.36 3.89 3.41 3.11 2.82 2.51
0.19 0.16 0.07 0.05 0.05 0.05 0.07 0.11 0.19 0.25 0.32 0.58 0.93 1.23 1.58 1.51 1.39 1.27 1.13 1.15 1.26 1.24 1.28 1.41 1.59 1.71 1.91 2.23 2.58 2.83 2.97 3.18 3.36 3.54 3.61 3.59 3.69 3.60 3.35 3.06 2.75 2.45 2.18 1.93
0.16 0.22 0.10 0.05 0.05 0.07 0.08 0.10 0.15 0.25 0.54 0.81 1.07 1.55 1.89 1.98 1.88 1.74 1.40 1.28 1.22 1.26 1.26 1.30 1.44 1.63 1.73 1.81 2.15 2.46 2.51 2.63 2.72 2.82 2.86 2.78 2.81 2.71 2.63 2.46 2.23 1.97 1.82 1.61
0.18 0.23 0.16 0.09 0.09 0.12 0.12 0.13 0.17 0.26 0.38 0.77 1.17 1.76 1.95 2.21 2.31 2.17 1.79 1.60 1.54 1.48 1.39 1.36 1.42 1.49 1.60 1.73 1.90 2.13 2.30 2.31 2.35 2.47 2.45 2.35 2.40 2.37 2.31 2.18 2.01 1.87 1.80 1.67
0.19 0.25 0.25 0.16 0.14 0.12 0.12 0.16 0.25 0.45 0.48 0.54 1.02 1.94 2.20 2.33 2.28 2.03 1.84 1.70 1.61 1.51 1.36 1.32 1.30 1.27 1.35 1.57 1.79 1.96 2.07 2.07 2.10 2.16 2.23 2.32 2.34 2.25 2.13 1.93 1.80 1.68 1.55 1.40
0.15 0.31 0.56 0.57 0.44 0.24 0.18 0.17 0.23 0.32 0.45 0.61 1.10 2.15 2.59 2.50 2.34 2.06 1.90 1.82 1.77 1.69 1.50 1.40 1.28 1.24 1.29 1.41 1.52 1.67 1.87 1.97 1.98 1.96 1.96 2.13 2.18 2.06 1.90 1.73 1.65 1.56 1.42 1.35
0.12 0.30 0.68 1.15 0.89 0.50 0.32 0.23 0.26 0.40 0.64 0.78 1.06 1.57 1.88 1.98 2.06 2.09 2.19 2.20 2.01 1.80 1.60 1.40 1.32 1.27 1.30 1.39 1.40 1.45 1.58 1.75 1.88 1.98 2.13 2.15 2.06 1.92 1.82 1.62 1.43 1.33 1.24 1.28
0.17 0.36 0.39 0.44 0.43 0.44 0.45 0.37 0.33 0.43 0.54 0.84 1.16 1.51 1.83 1.91 1.94 1.98 2.13 2.05 1.82 1.64 1.48 1.33 1.32 1.39 1.37 1.35 1.34 1.36 1.51 1.60 1.82 1.94 1.94 1.89 1.81 1.74 1.71 1.63 1.47 1.31 1.19 1.14
0.22 0.37 0.40 0.46 0.39 0.47 0.46 0.45 0.47 0.55 0.64 0.87 1.20 1.66 1.88 1.89 1.88 1.93 2.05 2.03 1.83 1.53 1.37 1.29 1.29 1.38 1.33 1.29 1.26 1.23 1.33 1.39 1.54 1.68 1.68 1.60 1.57 1.62 1.57 1.54 1.43 1.33 1.23 1.16
0.31 0.48 0.65 0.66 0.43 0.63 0.91 0.70 0.72 0.80 0.83 1.02 1.41 1.62 1.67 1.77 1.80 1.85 1.98 2.08 1.95 1.68 1.56 1.58 1.59 1.57 1.45 1.34 1.27 1.28 1.34 1.39 1.45 1.52 1.46 1.46 1.47 1.43 1.41 1.28 1.21 1.25 1.27 1.18
0.32 0.52 0.66 0.66 0.81 1.29 1.15 0.65 0.73 0.87 0.89 0.93 1.06 1.20 1.37 1.49 1.59 1.75 1.92 2.07 2.05 1.92 1.88 1.89 1.82 1.67 1.52 1.40 1.35 1.35 1.34 1.40 1.49 1.46 1.38 1.32 1.33 1.29 1.26 1.23 1.21 1.21 1.19 1.13
0.22 0.46 0.71 0.89 1.20 1.39 1.12 0.68 0.66 0.97 1.14 0.90 0.90 0.94 0.99 1.03 1.21 1.62 1.77 1.84 1.90 1.91 1.88 1.79 1.71 1.62 1.50 1.37 1.32 1.29 1.29 1.27 1.29 1.25 1.21 1.13 1.15 1.21 1.22 1.20 1.24 1.20 1.12 1.07
0.22 0.37 0.76 1.01 1.35 1.63 1.36 0.65 0.47 0.83 1.53 1.05 0.89 0.95 1.00 1.14 1.40 1.49 1.39 1.39 1.44 1.48 1.52 1.56 1.55 1.46 1.37 1.28 1.19 1.15 1.18 1.17 1.14 1.12 1.11 1.02 1.02 1.09 1.17 1.18 1.20 1.11 1.04 0.99
0.53 0.60 0.81 1.03 1.34 1.52 0.86 0.51 0.66 1.40 1.78 1.18 1.00 1.04 1.16 1.28 1.28 1.06 0.98 1.05 1.13 1.25 1.30 1.32 1.43 1.45 1.29 1.10 1.04 1.08 1.07 1.07 0.97 0.96 1.02 1.02 1.00 1.02 1.03 1.05 1.09 1.05 0.97 0.94
0.69 0.87 0.96 1.13 1.52 1.66 0.75 0.58 1.02 1.24 0.98 0.93 0.95 0.98 1.00 0.93 0.80 0.77 0.80 0.83 0.87 1.04 1.18 1.19 1.30 1.25 1.09 0.97 1.00 1.06 1.03 0.92 0.86 0.94 1.06 1.07 1.04 0.93 0.91 1.04 1.09 1.02 0.96 0.91
0.56 0.73 0.96 1.19 1.43 1.13 0.64 0.62 0.69 0.67 0.72 0.73 0.74 0.69 0.65 0.65 0.62 0.62 0.70 0.76 0.81 0.91 1.03 1.04 1.09 1.07 1.00 0.96 1.02 1.07 1.01 0.88 0.90 0.99 1.05 1.08 1.02 0.98 0.97 1.00 1.00 0.95 0.90 0.82
0.48 0.37 0.52 0.75 0.79 0.60 0.53 0.50 0.47 0.48 0.57 0.58 0.61 0.65 0.56 0.59 0.61 0.62 0.65 0.73 0.82 0.89 0.91 0.92 0.97 0.97 0.94 0.89 0.90 0.91 0.84 0.82 0.93 1.03 1.01 1.01 1.03 1.02 0.95 0.88 0.84 0.82 0.80 0.75
0.45 0.44 0.57 0.69 0.58 0.51 0.50 0.42 0.38 0.42 0.45 0.48 0.53 0.61 0.61 0.60 0.67 0.66 0.68 0.74 0.80 0.86 0.87 0.90 0.97 0.97 0.87 0.81 0.78 0.76 0.78 0.84 0.95 0.96 0.89 0.88 0.91 0.90 0.85 0.73 0.66 0.65 0.59 0.52
0.36 0.47 0.65 0.70 0.56 0.59 0.54 0.39 0.35 0.43 0.48 0.49 0.53 0.62 0.58 0.57 0.65 0.73 0.75 0.72 0.73 0.79 0.81 0.85 0.85 0.85 0.81 0.72 0.69 0.72 0.74 0.74 0.85 0.84 0.79 0.76 0.79 0.77 0.70 0.65 0.59 0.53 0.41 0.38

GEFSCGP_prec_meanprecacc_246.txt.gz
Total_Precipitation_Accumulation
0.03 0.04 0.04 0.03 0.03 0.03 0.03 0.06 0.07 0.07 0.06 0.09 0.14 0.24 0.39 0.55 0.62 0.77 0.92 0.98 1.03 1.23 1.70 2.14 2.28 2.34 2.64 2.90 3.07 3.04 3.24 3.59 3.81 4.17 4.15 4.34 4.78 5.14 5.28 5.38 5.37 5.29 5.20 5.20
0.05 0.04 0.03 0.03 0.03 0.03 0.02 0.05 0.07 0.09 0.10 0.12 0.19 0.32 0.42 0.53 0.61 0.78 0.99 1.06 1.02 1.20 1.53 1.99 2.21 2.51 2.73 2.87 3.14 3.27 3.42 3.87 4.35 4.88 5.39 5.77 6.10 6.11 6.21 6.16 6.04 5.76 5.56 5.47
0.05 0.03 0.02 0.03 0.03 0.03 0.03 0.05 0.07 0.09 0.13 0.17 0.24 0.43 0.55 0.66 0.73 0.84 0.95 1.00 1.10 1.32 1.63 1.82 2.07 2.38 2.62 2.83 3.11 3.30 3.65 4.30 5.10 5.60 6.06 6.62 6.95 6.66 6.38 6.08 6.00 5.92 5.85 5.74
0.04 0.02 0.02 0.03 0.04 0.04 0.06 0.06 0.06 0.09 0.14 0.26 0.28 0.53 0.80 0.92 1.02 0.95 1.04 1.19 1.32 1.46 1.62 1.80 2.00 2.25 2.55 2.89 3.03 3.26 3.88 4.61 5.26 5.81 6.42 7.01 7.30 7.35 7.13 6.57 6.07 5.65 5.36 5.14
0.04 0.03 0.03 0.04 0.04 0.04 0.05 0.05 0.06 0.10 0.16 0.26 0.30 0.54 1.04 1.27 1.32 1.27 1.32 1.37 1.40 1.43 1.56 1.72 1.89 2.10 2.23 2.58 3.08 3.42 4.00 4.68 5.34 6.09 6.83 7.28 7.51 7.50 7.12 6.33 5.55 5.00 4.67 4.39
0.03 0.04 0.04 0.04 0.04 0.05 0.05 0.07 0.11 0.15 0.21 0.32 0.32 0.52 1.13 1.48 1.68 1.64 1.51 1.54 1.52 1.41 1.40 1.44 1.65 1.84 2.14 2.50 2.92 3.39 3.71 4.30 4.99 5.61 6.19 6.41 6.60 6.53 6.11 5.67 5.17 4.75 4.23 3.76
0.06 0.06 0.05 0.05 0.04 0.05 0.06 0.12 0.28 0.42 0.48 0.44 0.33 0.58 1.19 1.50 1.48 1.47 1.46 1.53 1.49 1.32 1.35 1.55 1.82 1.82 2.11 2.40 2.78 3.23 3.63 4.00 4.52 5.06 5.57 5.81 5.97 5.86 5.38 4.93 4.49 4.07 3.57 3.17
0.13 0.11 0.07 0.05 0.05 0.06 0.06 0.12 0.34 0.54 0.59 0.59 0.54 0.91 1.37 1.39 1.27 1.20 1.18 1.22 1.36 1.39 1.43 1.54 1.68 1.77 2.07 2.31 2.57 2.97 3.32 3.69 3.92 4.15 4.52 4.77 4.92 4.79 4.44 3.96 3.48 3.18 2.89 2.57
0.20 0.17 0.08 0.05 0.05 0.05 0.07 0.11 0.19 0.25 0.33 0.59 0.94 1.23 1.58 1.52 1.39 1.27 1.13 1.15 1.26 1.24 1.28 1.41 1.59 1.72 1.92 2.23 2.59 2.84 2.98 3.20 3.39 3.60 3.68 3.66 3.76 3.68 3.43 3.13 2.81 2.50 2.24 1.98
0.17 0.22 0.11 0.06 0.05 0.07 0.08 0.11 0.15 0.26 0.56 0.82 1.08 1.56 1.90 1.98 1.88 1.75 1.41 1.28 1.22 1.26 1.26 1.30 1.45 1.64 1.73 1.82 2.16 2.47 2.53 2.65 2.75 2.84 2.90 2.82 2.86 2.76 2.69 2.51 2.28 2.02 1.86 1.64
0.18 0.24 0.16 0.10 0.10 0.12 0.12 0.14 0.17 0.27 0.39 0.78 1.18 1.76 1.95 2.21 2.31 2.17 1.79 1.61 1.54 1.48 1.39 1.36 1.42 1.49 1.61 1.74 1.91 2.14 2.32 2.33 2.37 2.50 2.48 2.39 2.44 2.41 2.36 2.22 2.05 1.91 1.84 1.70
0.20 0.26 0.26 0.17 0.14 0.12 0.12 0.16 0.25 0.46 0.50 0.55 1.03 1.94 2.21 2.33 2.29 2.04 1.85 1.71 1.61 1.52 1.36 1.33 1.30 1.28 1.36 1.58 1.80 1.97 2.09 2.10 2.14 2.20 2.27 2.35 2.38 2.28 2.15 1.95 1.83 1.71 1.59 1.44
0.16 0.32 0.57 0.58 0.45 0.25 0.18 0.17 0.23 0.32 0.46 0.62 1.11 2.15 2.60 2.52 2.36 2.09 1.94 1.83 1.78 1.69 1.50 1.40 1.29 1.24 1.29 1.42 1.54 1.70 1.89 2.00 2.01 1.99 1.99 2.15 2.20 2.07 1.92 1.76 1.68 1.58 1.45 1.38
0.13 0.31 0.68 1.15 0.90 0.50 0.32 0.23 0.27 0.40 0.65 0.80 1.06 1.57 1.88 1.99 2.07 2.10 2.21 2.22 2.01 1.80 1.60 1.41 1.33 1.28 1.31 1.41 1.43 1.47 1.61 1.78 1.89 1.99 2.14 2.16 2.08 1.94 1.85 1.64 1.46 1.36 1.27 1.31
0.18 0.37 0.40 0.44 0.43 0.44 0.45 0.38 0.33 0.43 0.55 0.85 1.16 1.51 1.83 1.91 1.95 2.00 2.15 2.07 1.83 1.65 1.49 1.35 1.34 1.41 1.40 1.37 1.37 1.39 1.53 1.62 1.84 1.95 1.95 1.90 1.82 1.75 1.73 1.65 1.50 1.34 1.22 1.17
0.22 0.38 0.41 0.47 0.39 0.47 0.46 0.45 0.47 0.55 0.65 0.87 1.20 1.67 1.89 1.89 1.88 1.95 2.07 2.05 1.85 1.55 1.40 1.31 1.30 1.39 1.35 1.32 1.28 1.24 1.35 1.40 1.54 1.69 1.68 1.60 1.58 1.63 1.59 1.56 1.45 1.35 1.26 1.19
0.31 0.48 0.66 0.67 0.43 0.64 0.91 0.70 0.72 0.81 0.83 1.03 1.41 1.62 1.68 1.77 1.81 1.87 2.00 2.11 1.98 1.70 1.58 1.60 1.62 1.60 1.47 1.35 1.29 1.30 1.35 1.39 1.46 1.53 1.47 1.47 1.47 1.44 1.42 1.29 1.23 1.27 1.30 1.21
0.32 0.53 0.68 0.67 0.82 1.30 1.16 0.65 0.73 0.87 0.89 0.94 1.06 1.20 1.37 1.50 1.60 1.76 1.93 2.09 2.08 1.94 1.90 1.91 1.84 1.69 1.54 1.41 1.36 1.36 1.35 1.41 1.49 1.46 1.39 1.32 1.34 1.30 1.27 1.25 1.23 1.23 1.23 1.17
0.22 0.47 0.73 0.91 1.22 1.40 1.13 0.68 0.66 0.97 1.14 0.90 0.91 0.94 0.99 1.03 1.22 1.63 1.79 1.86 1.94 1.93 1.90 1.81 1.73 1.63 1.51 1.38 1.33 1.29 1.29 1.27 1.29 1.26 1.22 1.13 1.16 1.22 1.23 1.21 1.27 1.23 1.14 1.10
0.22 0.38 0.77 1.02 1.37 1.65 1.37 0.66 0.48 0.84 1.54 1.06 0.90 0.95 1.01 1.14 1.41 1.50 1.41 1.40 1.48 1.50 1.53 1.58 1.57 1.48 1.38 1.28 1.19 1.15 1.18 1.17 1.14 1.12 1.11 1.02 1.03 1.10 1.17 1.19 1.22 1.13 1.05 1.01
0.54 0.61 0.82 1.05 1.36 1.53 0.87 0.52 0.68 1.43 1.80 1.20 1.01 1.04 1.16 1.29 1.29 1.07 0.99 1.06 1.16 1.27 1.31 1.33 1.44 1.46 1.30 1.10 1.04 1.09 1.08 1.07 0.97 0.96 1.03 1.03 1.01 1.03 1.04 1.06 1.11 1.06 0.99 0.96
0.71 0.88 0.97 1.15 1.54 1.68 0.76 0.59 1.04 1.26 0.99 0.94 0.96 0.99 1.01 0.94 0.81 0.78 0.81 0.84 0.89 1.05 1.19 1.19 1.30 1.25 1.09 0.97 1.00 1.06 1.04 0.92 0.86 0.94 1.06 1.08 1.05 0.94 0.92 1.06 1.10 1.04 0.98 0.93
0.58 0.75 0.98 1.20 1.44 1.14 0.64 0.63 0.70 0.68 0.74 0.75 0.76 0.70 0.66 0.67 0.64 0.63 0.71 0.78 0.82 0.92 1.03 1.04 1.09 1.07 1.00 0.96 1.02 1.07 1.01 0.88 0.90 0.99 1.06 1.08 1.02 0.99 0.98 1.02 1.02 0.96 0.91 0.84
0.49 0.39 0.53 0.77 0.80 0.60 0.54 0.52 0.48 0.50 0.58 0.60 0.62 0.66 0.58 0.61 0.63 0.64 0.67 0.75 0.83 0.90 0.91 0.92 0.97 0.97 0.94 0.89 0.90 0.91 0.84 0.82 0.93 1.03 1.01 1.02 1.03 1.02 0.96 0.90 0.86 0.84 0.81 0.76
0.46 0.45 0.59 0.71 0.60 0.53 0.51 0.44 0.41 0.45 0.47 0.49 0.54 0.62 0.62 0.61 0.68 0.67 0.68 0.75 0.80 0.86 0.87 0.90 0.98 0.98 0.87 0.82 0.78 0.77 0.78 0.85 0.96 0.96 0.89 0.88 0.92 0.90 0.85 0.74 0.68 0.67 0.62 0.55
0.38 0.49 0.67 0.71 0.57 0.60 0.56 0.41 0.37 0.45 0.51 0.51 0.54 0.63 0.59 0.58 0.66 0.73 0.75 0.73 0.74 0.80 0.82 0.86 0.86 0.87 0.82 0.73 0.70 0.72 0.74 0.75 0.85 0.85 0.79 0.76 0.79 0.77 0.71 0.66 0.61 0.55 0.44 0.41

GEFSCGP_prec_meanprecacc_252.txt.gz
Total_Precipitation_Accumulation
0.03 0.04 0.04 0.04 0.05 0.05 0.04 0.06 0.07 0.08 0.07 0.09 0.15 0.25 0.41 0.56 0.64 0.78 0.94 0.99 1.05 1.25 1.72 2.17 2.31 2.37 2.67 2.93 3.10 3.08 3.28 3.63 3.85 4.21 4.19 4.39 4.84 5.20 5.33 5.42 5.40 5.32 5.24 5.25
0.05 0.05 0.04 0.04 0.04 0.04 0.03 0.05 0.08 0.10 0.11 0.13 0.20 0.34 0.44 0.57 0.67 0.84 1.02 1.08 1.04 1.23 1.55 2.01 2.23 2.54 2.75 2.90 3.17 3.31 3.45 3.91 4.39 4.92 5.42 5.80 6.15 6.15 6.26 6.19 6.08 5.78 5.60 5.52
0.05 0.04 0.02 0.03 0.03 0.03 0.04 0.05 0.07 0.10 0.14 0.19 0.26 0.46 0.57 0.67 0.76 0.85 0.96 1.02 1.12 1.34 1.64 1.84 2.08 2.40 2.64 2.85 3.13 3.32 3.68 4.33 5.15 5.66 6.11 6.67 6.99 6.69 6.41 6.12 6.04 5.96 5.89 5.79
0.05 0.03 0.03 0.03 0.04 0.04 0.06 0.06 0.06 0.09 0.15 0.27 0.31 0.57 0.85 0.94 1.04 0.96 1.04 1.20 1.33 1.47 1.63 1.81 2.00 2.26 2.56 2.90 3.04 3.27 3.92 4.65 5.30 5.86 6.47 7.06 7.35 7.39 7.17 6.61 6.12 5.71 5.43 5.21
0.04 0.03 0.04 0.04 0.05 0.04 0.05 0.05 0.06 0.10 0.16 0.27 0.32 0.58 1.09 1.29 1.35 1.30 1.33 1.38 1.41 1.44 1.56 1.72 1.89 2.11 2.24 2.59 3.09 3.44 4.03 4.72 5.37 6.12 6.87 7.32 7.57 7.56 7.18 6.39 5.62 5.07 4.75 4.46
0.04 0.04 0.05 0.05 0.04 0.05 0.05 0.08 0.11 0.15 0.22 0.37 0.35 0.57 1.19 1.53 1.71 1.66 1.52 1.54 1.52 1.42 1.41 1.45 1.66 1.84 2.15 2.52 2.94 3.42 3.73 4.33 5.02 5.64 6.23 6.46 6.65 6.59 6.17 5.75 5.25 4.83 4.30 3.84
0.07 0.07 0.06 0.05 0.05 0.05 0.06 0.13 0.31 0.46 0.51 0.47 0.35 0.61 1.22 1.53 1.49 1.47 1.46 1.53 1.50 1.33 1.35 1.55 1.83 1.83 2.11 2.42 2.81 3.26 3.66 4.03 4.55 5.08 5.59 5.83 6.01 5.92 5.43 4.99 4.56 4.14 3.64 3.24
0.14 0.12 0.07 0.05 0.06 0.06 0.06 0.13 0.36 0.58 0.61 0.60 0.55 0.93 1.39 1.41 1.28 1.21 1.18 1.22 1.36 1.40 1.44 1.54 1.68 1.77 2.08 2.32 2.59 2.99 3.34 3.70 3.94 4.16 4.54 4.79 4.95 4.83 4.49 4.02 3.54 3.23 2.94 2.62
0.20 0.17 0.08 0.05 0.05 0.05 0.08 0.11 0.19 0.27 0.34 0.61 0.95 1.24 1.61 1.54 1.39 1.27 1.13 1.15 1.27 1.24 1.28 1.42 1.60 1.72 1.93 2.24 2.60 2.85 3.00 3.21 3.41 3.62 3.70 3.69 3.81 3.73 3.49 3.19 2.85 2.55 2.29 2.02
0.17 0.22 0.11 0.06 0.05 0.07 0.08 0.11 0.15 0.27 0.58 0.85 1.10 1.57 1.92 1.99 1.89 1.75 1.41 1.28 1.22 1.26 1.27 1.30 1.45 1.64 1.74 1.82 2.16 2.48 2.54 2.66 2.76 2.86 2.92 2.85 2.91 2.82 2.75 2.58 2.34 2.08 1.92 1.69
0.19 0.24 0.17 0.10 0.10 0.12 0.12 0.14 0.17 0.28 0.41 0.81 1.21 1.80 1.96 2.22 2.31 2.18 1.80 1.62 1.55 1.48 1.40 1.37 1.42 1.50 1.62 1.75 1.92 2.16 2.34 2.35 2.39 2.52 2.51 2.43 2.48 2.45 2.42 2.30 2.13 1.98 1.91 1.76
0.20 0.26 0.26 0.17 0.15 0.12 0.12 0.16 0.25 0.48 0.52 0.57 1.06 1.98 2.22 2.33 2.29 2.04 1.85 1.71 1.62 1.53 1.37 1.33 1.31 1.29 1.37 1.60 1.82 1.99 2.10 2.11 2.16 2.23 2.31 2.40 2.43 2.34 2.21 2.01 1.89 1.77 1.65 1.50
0.16 0.33 0.58 0.59 0.45 0.25 0.18 0.17 0.23 0.32 0.47 0.63 1.14 2.20 2.61 2.52 2.37 2.09 1.97 1.86 1.81 1.71 1.51 1.41 1.30 1.25 1.31 1.46 1.57 1.72 1.92 2.02 2.05 2.03 2.02 2.18 2.25 2.13 1.97 1.82 1.74 1.64 1.50 1.44
0.13 0.31 0.69 1.17 0.91 0.51 0.32 0.23 0.27 0.41 0.67 0.81 1.09 1.62 1.91 2.00 2.08 2.12 2.28 2.29 2.05 1.84 1.64 1.43 1.35 1.30 1.34 1.44 1.47 1.51 1.64 1.81 1.93 2.03 2.18 2.20 2.12 1.99 1.90 1.70 1.52 1.42 1.32 1.35
0.18 0.38 0.41 0.45 0.44 0.44 0.45 0.38 0.34 0.44 0.55 0.86 1.18 1.53 1.85 1.92 1.97 2.03 2.20 2.12 1.87 1.70 1.54 1.41 1.37 1.44 1.44 1.41 1.40 1.43 1.56 1.65 1.88 1.99 1.99 1.94 1.87 1.79 1.77 1.70 1.55 1.39 1.26 1.20
0.22 0.38 0.42 0.48 0.39 0.47 0.46 0.45 0.47 0.55 0.65 0.87 1.21 1.68 1.90 1.91 1.91 1.99 2.12 2.09 1.88 1.58 1.43 1.38 1.33 1.41 1.38 1.35 1.32 1.29 1.38 1.43 1.58 1.72 1.72 1.64 1.61 1.66 1.61 1.59 1.48 1.38 1.28 1.22
0.32 0.50 0.68 0.69 0.44 0.64 0.92 0.71 0.72 0.81 0.84 1.03 1.43 1.64 1.70 1.82 1.86 1.91 2.04 2.13 2.00 1.72 1.60 1.62 1.63 1.61 1.49 1.39 1.32 1.33 1.38 1.42 1.48 1.55 1.49 1.49 1.49 1.46 1.44 1.31 1.25 1.29 1.33 1.25
0.34 0.56 0.71 0.71 0.85 1.33 1.17 0.66 0.73 0.87 0.89 0.94 1.07 1.21 1.38 1.52 1.63 1.79 1.96 2.11 2.10 1.97 1.92 1.92 1.85 1.71 1.56 1.44 1.39 1.39 1.37 1.43 1.51 1.48 1.40 1.34 1.36 1.32 1.29 1.26 1.25 1.26 1.26 1.22
0.24 0.49 0.76 0.96 1.26 1.43 1.15 0.69 0.66 0.98 1.15 0.91 0.92 0.95 1.00 1.04 1.22 1.63 1.79 1.86 1.95 1.94 1.91 1.83 1.74 1.65 1.53 1.41 1.35 1.31 1.31 1.29 1.30 1.27 1.22 1.14 1.17 1.24 1.24 1.22 1.29 1.26 1.17 1.13
0.23 0.40 0.81 1.06 1.43 1.71 1.42 0.68 0.49 0.85 1.56 1.07 0.91 0.97 1.02 1.15 1.42 1.51 1.41 1.41 1.50 1.52 1.55 1.59 1.60 1.50 1.40 1.30 1.21 1.19 1.21 1.18 1.15 1.13 1.12 1.03 1.04 1.11 1.18 1.21 1.24 1.15 1.08 1.05
0.57 0.65 0.87 1.11 1.42 1.62 0.91 0.54 0.69 1.48 1.85 1.23 1.05 1.08 1.21 1.32 1.31 1.09 1.00 1.07 1.18 1.31 1.33 1.34 1.47 1.50 1.32 1.12 1.05 1.11 1.10 1.08 0.97 0.96 1.03 1.03 1.02 1.04 1.05 1.08 1.13 1.08 1.01 0.99
0.75 0.93 1.04 1.21 1.63 1.77 0.80 0.63 1.07 1.31 1.02 0.97 1.00 1.02 1.04 0.98 0.83 0.80 0.83 0.86 0.91 1.09 1.21 1.20 1.32 1.27 1.11 0.99 1.01 1.07 1.04 0.93 0.86 0.94 1.07 1.08 1.05 0.95 0.93 1.07 1.12 1.05 1.00 0.95
0.61 0.79 1.03 1.27 1.52 1.20 0.67 0.66 0.72 0.70 0.75 0.76 0.77 0.71 0.67 0.69 0.65 0.64 0.73 0.80 0.85 0.94 1.05 1.05 1.10 1.08 1.01 0.97 1.03 1.08 1.02 0.88 0.91 1.00 1.07 1.09 1.02 0.99 0.98 1.03 1.04 0.97 0.93 0.86
0.53 0.41 0.58 0.83 0.87 0.64 0.57 0.55 0.53 0.53 0.60 0.60 0.63 0.66 0.58 0.61 0.64 0.64 0.67 0.76 0.85 0.91 0.92 0.93 0.98 0.98 0.95 0.90 0.90 0.92 0.84 0.83 0.94 1.04 1.03 1.03 1.04 1.03 0.96 0.92 0.88 0.85 0.83 0.78
0.52 0.49 0.63 0.77 0.65 0.57 0.55 0.47 0.47 0.52 0.51 0.51 0.54 0.62 0.63 0.62 0.70 0.68 0.70 0.76 0.82 0.87 0.88 0.91 0.98 0.99 0.88 0.82 0.79 0.77 0.79 0.86 0.97 0.98 0.91 0.89 0.92 0.90 0.86 0.76 0.70 0.69 0.64 0.56
0.44 0.55 0.71 0.75 0.61 0.65 0.60 0.44 0.40 0.50 0.54 0.51 0.54 0.64 0.61 0.60 0.69 0.75 0.77 0.75 0.76 0.81 0.83 0.87 0.87 0.88 0.83 0.74 0.71 0.73 0.75 0.76 0.87 0.86 0.81 0.77 0.79 0.78 0.72 0.69 0.64 0.57 0.46 0.43

GEFSCGP_prec_meanprecacc_258.txt.gz
Total_Precipitation_Accumulation
0.03 0.04 0.04 0.05 0.07 0.06 0.05 0.07 0.08 0.10 0.10 0.12 0.16 0.26 0.42 0.57 0.65 0.79 0.96 1.03 1.08 1.27 1.76 2.21 2.34 2.40 2.70 2.94 3.10 3.09 3.29 3.65 3.88 4.24 4.22 4.41 4.86 5.23 5.35 5.44 5.42 5.34 5.27 5.27
0.05 0.05 0.05 0.04 0.05 0.05 0.03 0.06 0.09 0.12 0.13 0.14 0.22 0.35 0.45 0.58 0.68 0.85 1.06 1.11 1.09 1.27 1.60 2.07 2.27 2.58 2.80 2.93 3.19 3.32 3.47 3.93 4.41 4.94 5.44 5.82 6.17 6.16 6.27 6.22 6.10 5.80 5.62 5.54
0.06 0.04 0.02 0.03 0.03 0.03 0.04 0.05 0.08 0.11 0.16 0.20 0.27 0.48 0.58 0.68 0.77 0.88 1.00 1.05 1.15 1.38 1.71 1.94 2.16 2.44 2.67 2.87 3.15 3.33 3.69 4.35 5.17 5.69 6.16 6.72 7.03 6.72 6.43 6.15 6.07 5.99 5.91 5.81
0.05 0.03 0.03 0.03 0.04 0.04 0.06 0.06 0.07 0.10 0.17 0.29 0.32 0.60 0.87 0.96 1.06 0.99 1.07 1.23 1.36 1.51 1.69 1.89 2.06 2.29 2.58 2.92 3.05 3.28 3.92 4.66 5.32 5.89 6.50 7.10 7.40 7.43 7.20 6.64 6.16 5.76 5.47 5.25
0.05 0.03 0.04 0.04 0.05 0.04 0.05 0.05 0.07 0.10 0.17 0.28 0.32 0.60 1.11 1.30 1.36 1.34 1.40 1.45 1.45 1.48 1.61 1.77 1.93 2.12 2.25 2.61 3.10 3.45 4.04 4.74 5.40 6.16 6.91 7.37 7.61 7.59 7.22 6.43 5.65 5.11 4.80 4.51
0.04 0.04 0.05 0.05 0.04 0.05 0.05 0.08 0.11 0.15 0.23 0.37 0.36 0.58 1.22 1.57 1.73 1.70 1.62 1.63 1.56 1.44 1.43 1.47 1.67 1.86 2.16 2.54 2.95 3.44 3.75 4.36 5.05 5.67 6.26 6.50 6.69 6.63 6.20 5.78 5.28 4.86 4.34 3.88
0.07 0.07 0.06 0.06 0.05 0.06 0.07 0.14 0.32 0.47 0.52 0.47 0.36 0.62 1.24 1.55 1.51 1.50 1.51 1.57 1.52 1.34 1.36 1.56 1.83 1.83 2.12 2.44 2.82 3.28 3.67 4.04 4.56 5.11 5.61 5.86 6.03 5.94 5.46 5.01 4.58 4.18 3.68 3.28
0.15 0.12 0.08 0.06 0.07 0.07 0.07 0.14 0.37 0.59 0.62 0.60 0.56 0.94 1.42 1.46 1.33 1.22 1.20 1.24 1.38 1.41 1.44 1.54 1.68 1.78 2.08 2.33 2.61 3.02 3.35 3.71 3.95 4.18 4.56 4.81 4.97 4.85 4.51 4.04 3.56 3.26 2.96 2.65
0.22 0.19 0.08 0.06 0.06 0.07 0.09 0.12 0.20 0.27 0.35 0.62 0.96 1.25 1.63 1.56 1.41 1.28 1.14 1.16 1.28 1.25 1.29 1.42 1.60 1.73 1.93 2.25 2.61 2.87 3.01 3.22 3.42 3.64 3.73 3.72 3.83 3.76 3.51 3.21 2.88 2.58 2.32 2.06
0.19 0.24 0.11 0.06 0.06 0.08 0.09 0.11 0.16 0.28 0.59 0.87 1.12 1.59 1.94 2.01 1.90 1.76 1.42 1.30 1.24 1.26 1.27 1.31 1.46 1.65 1.75 1.83 2.18 2.51 2.59 2.71 2.80 2.90 2.96 2.89 2.95 2.86 2.79 2.62 2.39 2.12 1.95 1.72
0.20 0.26 0.17 0.10 0.10 0.13 0.13 0.14 0.18 0.29 0.43 0.83 1.24 1.82 2.00 2.25 2.34 2.20 1.82 1.63 1.56 1.49 1.40 1.38 1.45 1.53 1.64 1.78 1.95 2.20 2.40 2.41 2.44 2.56 2.55 2.47 2.53 2.51 2.48 2.37 2.20 2.04 1.97 1.80
0.21 0.27 0.27 0.18 0.15 0.12 0.13 0.17 0.26 0.49 0.54 0.59 1.08 2.01 2.27 2.38 2.32 2.05 1.87 1.72 1.64 1.54 1.38 1.35 1.34 1.33 1.41 1.63 1.86 2.03 2.16 2.17 2.21 2.29 2.36 2.45 2.48 2.40 2.28 2.09 1.97 1.84 1.72 1.55
0.17 0.33 0.58 0.60 0.47 0.26 0.19 0.18 0.25 0.34 0.49 0.66 1.17 2.24 2.63 2.55 2.40 2.11 1.98 1.88 1.82 1.73 1.53 1.43 1.33 1.30 1.35 1.49 1.61 1.76 1.96 2.07 2.11 2.12 2.08 2.24 2.31 2.19 2.04 1.90 1.82 1.72 1.58 1.50
0.13 0.32 0.70 1.18 0.93 0.52 0.33 0.24 0.29 0.43 0.70 0.84 1.11 1.64 1.93 2.02 2.10 2.14 2.29 2.31 2.09 1.88 1.67 1.45 1.38 1.35 1.39 1.48 1.51 1.55 1.68 1.86 1.99 2.08 2.23 2.26 2.19 2.04 1.94 1.76 1.58 1.48 1.38 1.40
0.19 0.38 0.41 0.45 0.44 0.45 0.46 0.39 0.36 0.47 0.58 0.89 1.19 1.54 1.87 1.94 1.99 2.05 2.22 2.14 1.89 1.73 1.57 1.43 1.40 1.47 1.49 1.45 1.44 1.47 1.62 1.70 1.92 2.04 2.04 1.99 1.91 1.84 1.81 1.75 1.60 1.44 1.30 1.25
0.23 0.39 0.43 0.48 0.39 0.48 0.47 0.46 0.49 0.57 0.66 0.89 1.22 1.69 1.92 1.92 1.94 2.02 2.14 2.11 1.91 1.61 1.46 1.41 1.36 1.47 1.42 1.38 1.34 1.32 1.45 1.49 1.62 1.75 1.75 1.68 1.66 1.70 1.65 1.63 1.52 1.42 1.31 1.25
0.33 0.51 0.70 0.69 0.44 0.65 0.94 0.73 0.74 0.82 0.85 1.04 1.44 1.66 1.73 1.84 1.88 1.93 2.07 2.16 2.04 1.76 1.63 1.64 1.67 1.67 1.52 1.41 1.34 1.37 1.43 1.47 1.53 1.60 1.54 1.54 1.54 1.50 1.48 1.35 1.29 1.33 1.36 1.29
0.35 0.57 0.72 0.72 0.86 1.35 1.19 0.68 0.75 0.89 0.91 0.96 1.09 1.23 1.41 1.54 1.65 1.82 1.99 2.13 2.12 1.99 1.94 1.94 1.88 1.74 1.59 1.47 1.42 1.42 1.42 1.47 1.56 1.53 1.45 1.38 1.39 1.34 1.31 1.29 1.28 1.28 1.29 1.25
0.25 0.51 0.79 1.00 1.30 1.46 1.18 0.72 0.70 1.03 1.19 0.94 0.96 0.99 1.04 1.07 1.25 1.66 1.81 1.88 1.97 1.96 1.93 1.84 1.76 1.66 1.55 1.44 1.39 1.34 1.35 1.34 1.35 1.30 1.25 1.16 1.20 1.26 1.27 1.24 1.31 1.29 1.20 1.15
0.25 0.42 0.86 1.15 1.53 1.77 1.47 0.72 0.54 0.94 1.64 1.15 0.96 1.01 1.06 1.18 1.45 1.53 1.42 1.42 1.51 1.54 1.57 1.61 1.62 1.52 1.42 1.32 1.24 1.22 1.25 1.23 1.19 1.16 1.14 1.04 1.05 1.12 1.20 1.22 1.25 1.16 1.09 1.06
0.60 0.69 0.92 1.19 1.55 1.71 0.97 0.58 0.74 1.59 1.95 1.32 1.10 1.13 1.25 1.35 1.33 1.10 1.02 1.08 1.20 1.33 1.35 1.35 1.49 1.52 1.34 1.14 1.08 1.15 1.14 1.12 1.00 0.98 1.04 1.04 1.03 1.04 1.06 1.08 1.13 1.09 1.02 1.00
0.80 0.98 1.09 1.28 1.73 1.87 0.86 0.69 1.14 1.39 1.10 1.04 1.06 1.08 1.10 1.01 0.86 0.83 0.85 0.88 0.93 1.12 1.24 1.23 1.35 1.29 1.12 1.00 1.04 1.10 1.08 0.96 0.89 0.95 1.08 1.09 1.06 0.95 0.93 1.07 1.13 1.06 1.01 0.96
0.68 0.86 1.11 1.36 1.61 1.27 0.72 0.71 0.77 0.74 0.80 0.81 0.80 0.75 0.70 0.72 0.69 0.69 0.76 0.83 0.88 0.98 1.09 1.10 1.15 1.12 1.03 0.98 1.04 1.09 1.04 0.91 0.93 1.02 1.08 1.10 1.03 1.00 0.99 1.04 1.05 0.98 0.95 0.88
0.59 0.46 0.66 0.96 0.97 0.71 0.62 0.60 0.58 0.57 0.64 0.64 0.67 0.72 0.62 0.64 0.66 0.66 0.70 0.79 0.88 0.94 0.97 0.97 1.03 1.02 0.97 0.90 0.91 0.93 0.86 0.84 0.96 1.06 1.04 1.03 1.04 1.03 0.97 0.92 0.89 0.86 0.85 0.80
0.59 0.56 0.70 0.86 0.74 0.64 0.62 0.55 0.54 0.58 0.56 0.54 0.58 0.68 0.68 0.65 0.71 0.70 0.71 0.77 0.83 0.90 0.92 0.94 1.01 1.01 0.90 0.84 0.80 0.79 0.80 0.87 0.98 0.99 0.91 0.90 0.93 0.90 0.87 0.76 0.71 0.70 0.65 0.58
0.51 0.62 0.79 0.82 0.67 0.73 0.70 0.53 0.46 0.55 0.59 0.57 0.59 0.68 0.66 0.64 0.71 0.77 0.79 0.77 0.77 0.84 0.87 0.90 0.89 0.89 0.84 0.76 0.72 0.74 0.76 0.77 0.88 0.87 0.82 0.78 0.80 0.79 0.73 0.69 0.64 0.58 0.47 0.44